Location: Bletchingley
(51.2333°N, 0.1000°W)
Time: 21:43:53
(UTC+00:00)

Cosmos 1733 - Pass Details

Date: 18 September 2020
Orbit: 504 x 522 km, 82.5° (Epoch: 30 October)

Event Time Altitude Azimuth Distance (km) Brightness Sun altitude
Exits shadow 20:52:11 47° 358° (N) 703 4.0 -24.8°
Drops below altitude 10° 20:55:00 10° 8° (N) 1,761 6.2 -25.1°
Sets 20:57:09 0° 10° (N) 2,650 7.2 -25.4°
